Location: Unspecified
(47.7670°N, 8.8522°E)
Time: 11:00:27
(UTC+01:00)

Tiangong - Pass Details

Date: 07 December 2022
Orbit: 383 x 386 km, 41.5° (Epoch: 30 January)

Event Time Altitude Azimuth Distance (km) Brightness Sun altitude
Rises 17:43:23 0° 255° (WSW) 2,252 3.9 -11.4°
Reaches altitude 10° 17:45:39 10° 241° (WSW) 1,400 2.2 -11.7°
Maximum altitude 17:48:19 25° 183° (S) 810 -0.3 -12.1°
Drops below altitude 10° 17:51:00 10° 125° (SE) 1,403 0.4 -12.6°
Enters shadow 17:51:05 10° 124° (SE) 1,433 0.4 -12.6°
